Weather in Sobolivka

Ukraine / Vinnytsia Region     48°37′09″N   29°28′43″E
temp.,
°C
wind,
m/s
gust,
m/s
humid.,
%
clouds,
%
prec.,
mm/h
press.,
hPa
HPBL,
m
19 april, mon
mon1900:00+9ne3576100 0.0 1017181
03:00+8e2383100 0.1 101795
06:00+8ne238699 0.0 1016122
09:00+8ene3482100 0.1 1017315
12:00+10ene226896 0.0 1016786
15:00+12nne225297 0.1 10151585
18:00+11ne466299 0.1 1014579
21:00+9ne596988 0.1 1014389
20 april, tue
tue2000:00+7ne387534 0.0 1013297
03:00+6nne3577100 0.0 1011104
06:00+5nne3783100 0.0 1010137
09:00+8n467890 0.1 1010343
12:00+12n665435 0.4 10091671
15:00+13n4650100 0.6 10081903
18:00+12nnw566079 0.3 10081162
21:00+7n48795 0.4 1011299
21 april, wed
wed2100:00+5nw23825 0.0 101158
03:00+4wnw33845 0.0 101262
06:00+4wnw348927 0.0 101361
09:00+8wnw237225 0.0 1014366
12:00+12w33538 0.0 10141459
15:00+14wsw344495 0.0 10132100
18:00+13sw446029 0.1 1014775
21:00+9ssw22755 0.7 101529
22 april, thu
thu2200:00+8ssw337938 0.0 101641
03:00+7ssw22806 0.0 101625
06:00+6ssw228137 0.0 101730
09:00+11ssw356726 0.0 1017360
12:00+15sw45505 0.1 10171551
15:00+17sw674459 0.1 10162253
18:00+16ssw4650100 0.0 1016304
21:00+13s335967 0.0 101649
23 april, fri
fri2300:00+12sse366642 0.0 1016134
03:00+9s4108113 0.2 1015187
06:00+8s37874 0.6 1015138
09:00+13ssw46685 0.6 1015361
12:00+17wsw685088 0.4 10151784
15:00+11nw7970100 0.8 1017777
18:00+8nw6774100 0.2 1018606
21:00+7nw2277100 0.4 101948